[[{"header":{"parameterUnit":"m.s-1","parameterCategory":1,"la1":30.2991,"la2":30.254,"lo1":-89.0895,"lo2":-89.0444,"dy":0.0017,"dx":0.0017,"nx":28,"ny":28,"refTime":"2024-06-11T09:00:00:Z","depth":0,"parameterNumber":2,"parameterNumberName":"U-component_of_WINDS"},"data":[0,0,0,0,0,0,0,0,0,0,0,0,0,0,0,0,0,0,0,0,0,0,0,0,0,0,0,0,0,0,0,0,0,0,0,0,0,0,0,0,0,0,0,0,0,0,0,0,0,0,0,0,0,0,0,0,0,0,-1.4565,-1.4565,0,-1.4577,-1.4577,-1.4577,-1.4511,-1.4509,-1.4507,-1.4505,-1.4519,-1.4521,-1.4524,0,0,0,0,0,0,0,0,0,0,0,0,0,-1.4484,-1.4486,-1.4565,-1.4565,-1.4565,-1.4577,-1.4577,-1.4577,-1.4511,-1.4509,-1.4507,-1.4505,-1.4519,-1.4521,-1.4524,0,0,0,0,0,0,0,0,0,0,0,0,0,-1.451,-1.4486,-1.4565,-1.4533,-1.4531,-1.4577,-1.4577,-1.4577,-1.4512,-1.4509,-1.4506,-1.4503,-1.4518,-1.4521,-1.4524,-1.4601,0,0,-1.4534,-1.4535,0,0,0,0,0,0,0,0,-1.4509,-1.4513,-1.4538,-1.4536,-1.4533,-1.454,-1.4554,-1.4586,-1.4513,-1.4519,-1.4505,-1.4502,-1.4528,-1.4531,-1.4539,-1.4602,-1.4603,-1.4534,-1.4536,-1.4538,-1.4539,0,0,0,0,0,0,0,-1.4507,-1.4512,-1.4569,-1.4538,-1.4535,-1.4519,-1.4519,-1.4559,-1.454,-1.4518,-1.4513,-1.4516,-1.4527,-1.4536,-1.4539,-1.4603,-1.4534,-1.4537,-1.4539,-1.454,-1.4728,-1.4731,0,0,0,0,0,0,-1.4509,-1.4511,-1.4569,-1.457,-1.4513,-1.4523,-1.4523,-1.454,-1.4539,-1.4536,-1.4518,-1.4513,-1.4532,-1.4535,-1.4539,-1.4629,-1.4538,-1.4541,-1.4542,-1.4725,-1.4729,-1.4732,0,0,0,0,0,0,-1.4508,-1.4515,-1.4569,-1.4539,-1.4545,-1.4527,-1.4547,-1.4542,-1.4552,-1.4539,-1.4535,-1.4532,-1.453,-1.4535,-1.4586,-1.4629,-1.4542,-1.4545,-1.4722,-1.4727,-1.4731,-1.481,0,0,0,0,0,0,-1.4506,-1.4515,-1.4544,-1.454,-1.4547,-1.4615,-1.4549,-1.4544,-1.4557,-1.455,-1.4551,-1.4548,-1.4528,-1.4582,-1.4589,-1.4631,-1.4548,-1.4718,-1.4724,-1.4729,-1.4803,-1.4816,-1.4828,0,0,0,0,0,-1.4503,-1.4566,-1.4546,-1.4553,-1.4583,-1.4618,-1.4622,-1.4597,-1.4561,-1.459,-1.4582,-1.4548,-1.4623,-1.4588,-1.4596,-1.4639,-1.4715,-1.4722,-1.4729,-1.4798,-1.4814,-1.4827,0,0,0,0,0,0,-1.4576,-1.4565,-1.4542,-1.4606,-1.4613,-1.4607,-1.4643,-1.4615,-1.4633,-1.4625,-1.4594,-1.4595,-1.4652,-1.465,-1.4611,-1.4713,-1.4663,-1.4672,-1.4712,-1.4727,-1.4739,-1.4738,-1.455,0,0,0,0,0,-1.4599,-1.4629,-1.4618,-1.4675,-1.468,-1.4661,-1.4675,-1.4656,-1.4662,-1.4665,-1.466,-1.4668,-1.4693,-1.471,-1.4732,-1.4803,-1.4801,-1.4837,-1.4849,-1.4859,-1.4867,-1.4903,-1.4919,-1.4755,-1.4755,-1.4755,0,0,-1.4648,-1.4646,-1.4666,-1.469,-1.4693,-1.4724,-1.4664,-1.47,-1.4722,-1.467,-1.4718,-1.4715,-1.4722,-1.4783,-1.4809,-1.4783,-1.4912,-1.4868,-1.4876,-1.4878,-1.4912,-1.4927,-1.4941,-1.476,-1.4759,-1.4758,0,0,-1.4753,-1.4754,-1.4802,-1.4806,-1.4811,-1.4798,-1.481,-1.4807,-1.4803,-1.485,-1.4812,-1.4838,-1.4882,-1.4888,-1.4897,-1.5003,-1.4973,-1.5012,-1.5076,-1.5111,-1.5124,-1.5135,-1.5173,-1.5187,-1.502,-1.502,-1.502,0,-1.4813,-1.4858,-1.483,-1.4868,-1.4879,-1.4833,-1.4881,-1.4886,-1.4899,-1.4908,-1.4879,-1.4932,-1.4933,-1.4995,-1.502,-1.5029,-1.5041,-1.5011,-1.5125,-1.5136,-1.5146,-1.5181,-1.5195,-1.5024,-1.5024,-1.5023,-1.5023,0,-1.4931,-1.4963,-1.5001,-1.5014,-1.5029,-1.5072,-1.505,-1.5069,-1.5048,-1.5038,-1.5087,-1.5086,-1.5108,-1.5121,-1.5101,-1.5179,-1.5163,-1.513,-1.5078,-1.5166,-1.5199,-1.5212,-1.5031,-1.5029,-1.5028,-1.5027,0,0,-1.5083,-1.5079,-1.5093,-1.5098,-1.51,-1.5124,-1.5165,-1.5185,-1.5202,-1.5212,-1.5245,-1.5283,-1.5252,-1.5262,-1.5242,-1.5274,-1.5357,-1.5236,-1.5236,-1.5258,-1.5443,-1.5467,-1.5484,-1.5337,-1.5339,-1.5341,-1.5442,0,-1.5185,-1.5254,-1.5229,-1.5299,-1.5328,-1.5284,-1.5319,-1.5325,-1.5316,-1.5339,-1.533,-1.5357,-1.5315,-1.532,-1.5349,-1.5341,-1.5394,-1.5333,-1.5367,-1.5369,-1.5367,-1.5501,-1.5527,-1.5622,-1.5455,-1.5457,-1.5458,0,-1.5313,-1.5328,-1.5401,-1.5397,-1.5408,-1.5441,-1.5457,-1.5479,-1.5484,-1.5476,-1.5487,-1.546,-1.5499,-1.5448,-1.5501,-1.5461,-1.5473,-1.5471,-1.5474,-1.5476,-1.5419,-1.5506,-1.5652,-1.5666,-1.5478,-1.5477,-1.5475,0,-1.5416,-1.5454,-1.5502,-1.5508,-1.5505,-1.5528,-1.5529,-1.553,-1.5544,-1.5558,-1.5566,-1.5585,-1.5596,-1.5611,-1.5589,-1.5554,-1.5646,-1.5593,-1.564,-1.5641,-1.5661,-1.566,-1.5811,-1.567,-1.567,-1.567,-1.5669,0,-1.5532,-1.5578,-1.5548,-1.5578,-1.5628,-1.5599,-1.565,-1.5645,-1.5647,-1.5675,-1.5639,-1.5666,-1.5636,-1.5661,-1.5644,-1.5691,-1.5696,-1.569,-1.5685,-1.5693,-1.5694,-1.5701,-1.5693,-1.5673,-1.5672,-1.5672,-1.5671,0,-1.5655,-1.5637,-1.5686,-1.5679,-1.5679,-1.5716,-1.571,-1.5737,-1.5726,-1.5762,-1.5768,-1.5751,-1.5777,-1.5758,-1.5784,-1.5773,-1.5834,-1.5821,-1.5833,-1.5829,-1.5877,-1.5872,-1.6037,-1.6056,-1.5904,-1.5905,-1.5907,0,-1.573,-1.5765,-1.5761,-1.5777,-1.5779,-1.5805,-1.5818,-1.5792,-1.5807,-1.5815,-1.5841,-1.5864,-1.5881,-1.5926,-1.5916,-1.5936,-1.5921,-1.5978,-1.5924,-1.5931,-1.5921,-1.5919,-1.5922,-1.5988,-1.599,-1.5992,-1.5993,0,-1.5865,-1.5854,-1.5875,-1.5892,-1.5909,-1.5921,-1.593,-1.5945,-1.5918,-1.5937,-1.5964,-1.5977,-1.6003,-1.6027,-1.6043,-1.6043,-1.6014,-1.601,-1.6022,-1.603,-1.6035,-1.6032,-1.5862,-1.6006,-1.6005,-1.6004,-1.6003,-1.6003,-1.5966,-1.5994,-1.5996,-1.602,-1.6024,-1.6033,-1.6058,-1.605,-1.6071,-1.609,-1.6073,-1.6105,-1.6108,-1.6127,-1.613,-1.6155,-1.6131,-1.6149,-1.6153,-1.6158,-1.6164,-1.6032,-1.6158,-1.6157,-1.6157,-1.6156,-1.6156,0,-1.6099,-1.6098,-1.612,-1.6134,-1.6152,-1.6122,-1.6131,-1.6149,-1.6177,-1.6182,-1.62,-1.623,-1.6252,-1.6244,-1.6263,-1.6284,-1.6271,-1.629,-1.6288,-1.6289,-1.6184,-1.6172,-1.6301,-1.6301,-1.6301,-1.6301,-1.6301,-1.6301,-1.617,-1.6216,-1.6205,-1.6252,-1.6251,-1.6281,-1.6289,-1.6297,-1.6301,-1.6336,-1.6354,-1.6348,-1.6348,-1.6367,-1.6387,-1.6383,-1.6392,-1.6416,-1.6408,-1.631,-1.6296,-1.6283,-1.6271,-1.6418,-1.6419,-1.651,-1.6511,-1.6512]},{"header":{"parameterUnit":"m.s-1","parameterCategory":1,"la1":30.2991,"la2":30.254,"lo1":-89.0895,"lo2":-89.0444,"dy":0.0017,"dx":0.0017,"nx":28,"ny":28,"refTime":"2024-06-11T09:00:00:Z","depth":0,"parameterNumber":3,"parameterNumberName":"V-component_of_WINDS"},"data":[0,0,0,0,0,0,0,0,0,0,0,0,0,0,0,0,0,0,0,0,0,0,0,0,0,0,0,0,0,0,0,0,0,0,0,0,0,0,0,0,0,0,0,0,0,0,0,0,0,0,0,0,0,0,0,0,0,0,-3.4556,-3.4556,0,-3.4603,-3.4603,-3.4604,-3.4562,-3.4561,-3.4559,-3.4557,-3.4602,-3.4605,-3.4607,0,0,0,0,0,0,0,0,0,0,0,0,0,-3.4426,-3.4428,-3.4556,-3.4556,-3.4557,-3.4603,-3.4603,-3.4604,-3.4563,-3.4561,-3.4559,-3.4557,-3.4601,-3.4604,-3.4608,0,0,0,0,0,0,0,0,0,0,0,0,0,-3.4478,-3.4429,-3.4556,-3.4542,-3.4541,-3.4603,-3.4603,-3.4604,-3.4563,-3.4561,-3.4558,-3.4556,-3.46,-3.4604,-3.4608,-3.4684,0,0,-3.4621,-3.4622,0,0,0,0,0,0,0,0,-3.4476,-3.4483,-3.4543,-3.4543,-3.4542,-3.4574,-3.4574,-3.4631,-3.4564,-3.4555,-3.4557,-3.4554,-3.4595,-3.4599,-3.4613,-3.4687,-3.4688,-3.4621,-3.4624,-3.4625,-3.4627,0,0,0,0,0,0,0,-3.4472,-3.4481,-3.4574,-3.4544,-3.4544,-3.4532,-3.4537,-3.4585,-3.4588,-3.4555,-3.4552,-3.4559,-3.4594,-3.4609,-3.4614,-3.4689,-3.4621,-3.4625,-3.4627,-3.4629,-3.4826,-3.4829,0,0,0,0,0,0,-3.447,-3.4478,-3.4573,-3.4576,-3.4502,-3.4536,-3.4542,-3.4566,-3.4588,-3.4588,-3.4561,-3.4557,-3.4603,-3.4609,-3.4615,-3.4705,-3.4625,-3.4629,-3.4632,-3.4823,-3.4827,-3.483,0,0,0,0,0,0,-3.4468,-3.4479,-3.4571,-3.4526,-3.4537,-3.4541,-3.457,-3.4569,-3.4584,-3.4592,-3.4592,-3.4576,-3.4602,-3.461,-3.4668,-3.4706,-3.4631,-3.4635,-3.482,-3.4824,-3.4828,-3.4886,0,0,0,0,0,0,-3.4464,-3.4478,-3.4508,-3.4527,-3.454,-3.4624,-3.4572,-3.4571,-3.4592,-3.4587,-3.4606,-3.4607,-3.46,-3.4662,-3.4672,-3.4711,-3.4638,-3.4817,-3.4822,-3.4827,-3.4881,-3.4892,-3.4901,0,0,0,0,0,-3.446,-3.4522,-3.451,-3.4522,-3.4578,-3.4626,-3.4633,-3.4625,-3.4595,-3.4625,-3.4629,-3.4607,-3.4701,-3.4668,-3.4679,-3.472,-3.4814,-3.482,-3.4826,-3.4876,-3.489,-3.4901,0,0,0,0,0,0,-3.4507,-3.4525,-3.4511,-3.4582,-3.4603,-3.4619,-3.4656,-3.4639,-3.4668,-3.4662,-3.4649,-3.4654,-3.4715,-3.4723,-3.4686,-3.4794,-3.4752,-3.4761,-3.4787,-3.4799,-3.4809,-3.4806,-3.4642,0,0,0,0,0,-3.4526,-3.4565,-3.4578,-3.4639,-3.465,-3.4652,-3.4672,-3.4665,-3.4685,-3.4693,-3.4702,-3.4722,-3.4755,-3.4778,-3.481,-3.4882,-3.4885,-3.4915,-3.4926,-3.4934,-3.4941,-3.4979,-3.4992,-3.485,-3.485,-3.485,0,0,-3.4565,-3.4579,-3.4604,-3.4649,-3.4664,-3.4704,-3.4659,-3.4703,-3.4732,-3.4699,-3.4755,-3.4762,-3.4783,-3.4848,-3.4878,-3.4857,-3.4981,-3.4942,-3.4948,-3.4951,-3.4987,-3.5,-3.5012,-3.4854,-3.4853,-3.4853,0,0,-3.4655,-3.4671,-3.4724,-3.474,-3.4764,-3.4764,-3.4777,-3.4795,-3.4799,-3.4855,-3.4831,-3.4865,-3.4924,-3.4939,-3.4955,-3.5052,-3.5031,-3.5062,-3.5115,-3.5152,-3.5163,-3.5173,-3.5207,-3.5219,-3.507,-3.507,-3.507,0,-3.47,-3.476,-3.4752,-3.4798,-3.4818,-3.4792,-3.4843,-3.4859,-3.4892,-3.4905,-3.4882,-3.4955,-3.4968,-3.5036,-3.5059,-3.5073,-3.5086,-3.506,-3.5163,-3.5172,-3.5181,-3.5213,-3.5226,-3.5074,-3.5073,-3.5073,-3.5072,0,-3.4814,-3.4856,-3.4895,-3.4928,-3.4952,-3.5001,-3.4999,-3.5024,-3.5014,-3.5016,-3.5073,-3.5087,-3.512,-3.5136,-3.5127,-3.5203,-3.5189,-3.5165,-3.5122,-3.5199,-3.5228,-3.524,-3.5079,-3.5077,-3.5076,-3.5075,0,0,-3.4935,-3.4964,-3.4978,-3.4992,-3.5017,-3.5048,-3.5095,-3.5129,-3.5151,-3.5174,-3.5212,-3.5262,-3.524,-3.5258,-3.525,-3.5282,-3.5357,-3.5253,-3.5254,-3.5271,-3.544,-3.5457,-3.5472,-3.5344,-3.5346,-3.5348,-3.5438,0,-3.5026,-3.5109,-3.5103,-3.518,-3.5218,-3.5194,-3.5234,-3.5253,-3.5257,-3.5288,-3.5291,-3.5327,-3.5295,-3.5306,-3.5337,-3.5341,-3.539,-3.5334,-3.5377,-3.5379,-3.5372,-3.5487,-3.5506,-3.559,-3.5449,-3.5451,-3.5453,0,-3.5143,-3.5172,-3.5253,-3.5272,-3.5287,-3.5324,-3.5354,-3.5385,-3.5405,-3.5406,-3.5426,-3.5412,-3.5458,-3.5415,-3.5477,-3.544,-3.5457,-3.5461,-3.5464,-3.5467,-3.542,-3.5492,-3.5617,-3.5629,-3.5471,-3.547,-3.5468,0,-3.5222,-3.5281,-3.5337,-3.535,-3.5373,-3.54,-3.541,-3.5428,-3.5449,-3.5475,-3.5488,-3.5519,-3.5535,-3.5559,-3.5553,-3.5523,-3.5616,-3.5573,-3.5616,-3.5616,-3.5636,-3.5634,-3.5764,-3.5649,-3.5649,-3.5649,-3.5648,0,-3.5323,-3.5374,-3.5373,-3.5407,-3.5463,-3.5455,-3.5509,-3.5517,-3.5533,-3.5567,-3.5548,-3.558,-3.5571,-3.5603,-3.5599,-3.565,-3.5658,-3.5658,-3.5656,-3.5659,-3.5659,-3.5669,-3.5663,-3.5652,-3.5651,-3.5651,-3.565,0,-3.542,-3.5422,-3.5481,-3.5499,-3.5504,-3.5544,-3.5558,-3.559,-3.5592,-3.5636,-3.5645,-3.5648,-3.5684,-3.5682,-3.5722,-3.5719,-3.5782,-3.5774,-3.5776,-3.5773,-3.5816,-3.5811,-3.5956,-3.5974,-3.5848,-3.5849,-3.585,0,-3.5484,-3.5523,-3.5545,-3.5567,-3.558,-3.5616,-3.5637,-3.5631,-3.5653,-3.5679,-3.5707,-3.5742,-3.5769,-3.5828,-3.5833,-3.5863,-3.5855,-3.5903,-3.5859,-3.5861,-3.5854,-3.5851,-3.5854,-3.5912,-3.5913,-3.5914,-3.5915,0,-3.5598,-3.5597,-3.5629,-3.5661,-3.5687,-3.5712,-3.5735,-3.5754,-3.5749,-3.5775,-3.5813,-3.5834,-3.5876,-3.591,-3.5939,-3.5948,-3.5931,-3.5929,-3.5941,-3.5943,-3.5943,-3.5942,-3.5798,-3.5926,-3.5925,-3.5924,-3.5923,-3.5923,-3.5679,-3.5712,-3.5733,-3.5769,-3.5785,-3.5807,-3.5837,-3.5844,-3.5875,-3.591,-3.5904,-3.5945,-3.5963,-3.6001,-3.6013,-3.6045,-3.6027,-3.6043,-3.6047,-3.6051,-3.6056,-3.5939,-3.605,-3.605,-3.6049,-3.6049,-3.6049,0,-3.579,-3.5803,-3.5836,-3.5869,-3.5897,-3.588,-3.5904,-3.5928,-3.5965,-3.5984,-3.6012,-3.6054,-3.6087,-3.6095,-3.6126,-3.615,-3.6143,-3.6158,-3.6156,-3.6158,-3.607,-3.6057,-3.6164,-3.6164,-3.6164,-3.6164,-3.6164,-3.6164,-3.5852,-3.5906,-3.5907,-3.5969,-3.598,-3.6022,-3.6037,-3.6056,-3.6071,-3.612,-3.6148,-3.6153,-3.6167,-3.62,-3.6229,-3.623,-3.6242,-3.626,-3.6258,-3.6176,-3.6164,-3.6153,-3.6141,-3.6263,-3.6263,-3.6343,-3.6344,-3.6344]}]]